Showing default

INTELSAT 3-F7, 4376

Orbit data source: Space-Track

INTELSAT 3-F7, 4376 is a payload satellite owned by INTELSAT (US) in GEO that was launched on Thu, 23 Apr 1970 UTC via a THOR DELTA M launch vehicle from the Air Force Eastern Test Range (AFETR). Payload-class satellites include a variety of spacecraft equipped with specific instruments for various scientific and technological missions. These include communications satellites like Starlink; space stations such as the ISS; scientific satellites like the Hubble; Earth observation satellites from companies like Planet Labs, Umbra, and HawkEye 360; GPS; miniature CubeSats for education and research; and military/defense satellites.

Not visible in the next 10 days
Identifier
4376, 1970-032A
Orbit
GEO
Country
Flag of USUS / ITSO
Related business
Manufacturer
TRW
Mission
Non-operational spacecraft
Bus & Motor
INTELSAT 3, MRE-4
Mass
294 kg wet, 113 kg dry
Launch date (UTC)
1970-04-23 (56 years ago)
Launch vehicle
THOR DELTA M
Launch site
Air Force Eastern Test Range (AFETR)
Object type
Payload
Rocket body
Debris
Shape & HBR
Unknown
Radar Cross Section
Medium (>0.1 m² and <1 m²)

Expand to show TLE details & history
Last TLE update: 1 day ago

TLE from 1 day ago
0 INTELSAT 3-F7
1 04376U 70032A   26125.27942111 -.00000342  00000-0  00000-0 0  9995
2 04376   2.3186  88.5636 0003737 237.7266 122.0951  1.00337748 46936
Epoch: 2026-05-05T06:42Z
TLE epoch observation values (Epoch: 2026-05-05T06:42:21.983Z)
Latitude
-0°
Longitude
124.66777°
Altitude
35,775.917 km
Speed
3.075 km/s
True Right ascension
05h 53m 39s
True Declination
0° 00' 00"
Sunlit
Object was in daylight at epoch
Visualization orbit readout
Latitude
Unknown
Longitude
Unknown
Altitude
Unknown
Speed
Unknown
Apparent Right ascension
Unknown
Apparent Declination
Unknown
Sunlit
N/A
Visualization observer readout
Local Sidereal Time
18:54:21
Azimuth
Unknown
Elevation
Unknown
Doppler factor
Unknown
Orbital elements
Apogee altitude
35,784.932 km
Perigee altitude
35,753.431 km
Semi-major axis
42,147.319 km
Eccentricity
0.00037
Inclination
2.3186°
RAAN
88.5636°
Arg. of periapsis
237.7266°
True anomaly
122.13137°
Mean anomaly
122.0951°
Eccentric anomaly
122.11324°
Mean motion
0.25084 °/min
Orbital period
1,435.21 mins
BSTAR
0
Loading maneuver chart data...
Computing Atmospheric mass density...
Loading historical data...
Loading historical data...
Loading historical data...
Loading historical data...
Loading historical data...
Loading historical data...
Loading historical data...
Other satellites on launch #32 in the year 1970 (1970-04-23 UTC)

Documentation

Showing up to 5 results
|